Grand Junction, CO

6:36 AM MDT on March 23, 2017 (GMT -0600)
Walker

Weather History for KGJT - June, 2013

Change the Weather History Date:

Wednesday, June 26, 2013

  Actual Average Record
Temperature  
Mean Temperature 78 °F 76 °F  
Max Temperature 96 °F 91 °F 104 °F (1994)
Min Temperature 59 °F 60 °F 44 °F (1985)
Degree Days  
Heating Degree Days 0 0  
Month to date heating degree days 5 20  
Since 1 June heating degree days 5 20  
Since 1 July heating degree days 6056 5609  
Cooling Degree Days 13 11  
Month to date cooling degree days 241 186  
Year to date cooling degree days 296 237  
Since 1 June cooling degree days 241 186  
Growing Degree Days 28 (Base 50)    
Moisture  
Dew Point 32 °F    
Average Humidity 23    
Maximum Humidity 36    
Minimum Humidity 10    
Precipitation  
Precipitation 0.00 in 0.01 in 0.94 in (1899)
Month to date precipitation 0.01 0.40  
Year to date precipitation 3.42 4.23  
Snow  
Snow 0.00 in 0.00 in T in (2009)
Month to date snowfall 0.0 0.0  
Since 1 June snowfall 0.0 0.0  
Since 1 July snowfall 24.6 19.1  
Snow Depth 0.00 in    
Sea Level Pressure  
Sea Level Pressure 29.87 in    
Wind  
Wind Speed 8 mph (NNE)    
Max Wind Speed 17 mph    
Max Gust Speed 20 mph    
Visibility 10 miles    
Events      
T = Trace of Precipitation, MM = Missing Value Source: NWS Daily Summary

Daily Weather History Graph

Daily Weather History Graph

Search for Another Location

Airport or City:

Trip Planner

Search our weather history database for the weather conditions in past years. The results will help you decide how hot, cold, wet, or windy it might be!

Date:

Astronomy

Jun. 26, 2013 Rise Set
Actual Time 5:49 AM MDT 8:44 PM MDT
Civil Twilight 5:17 AM MDT 9:16 PM MDT
Nautical Twilight 4:36 AM MDT 9:57 PM MDT
Astronomical Twilight 3:50 AM MDT 10:43 PM MDT
Moon 11:11 PM MDT (6/26) 9:43 AM MDT (6/26)
Length of Visible Light 15h 58m
Length of Day
14h 54m
Waning Gibbous, 85% of the Moon is Illuminated
Jun 26
Waning Gibbous
Jun 29
Last Quarter
Jul 8
New
Jul 15
First Quarter
Jul 22
Full

Hourly Weather History & Observations

Time (MDT) Temp. Dew Point Humidity Pressure Visibility Wind Dir Wind Speed Gust Speed Precip Events Conditions
12:53 AM 69.1 °F 30.9 °F 24% 29.83 in 10.0 mi ENE 4.6 mph - N/A   Clear
1:53 AM 66.0 °F 30.9 °F 27% 29.84 in 10.0 mi SE 10.4 mph - N/A   Clear
2:53 AM 69.1 °F 33.1 °F 26% 29.82 in 10.0 mi ESE 13.8 mph - N/A   Clear
3:53 AM 64.0 °F 35.1 °F 34% 29.84 in 10.0 mi ESE 10.4 mph - N/A   Clear
4:53 AM 66.9 °F 33.1 °F 28% 29.84 in 10.0 mi East 5.8 mph - N/A   Clear
5:53 AM 60.1 °F 34.0 °F 38% 29.89 in 10.0 mi ENE 6.9 mph - N/A   Clear
6:53 AM 64.0 °F 36.0 °F 35% 29.90 in 10.0 mi ESE 10.4 mph - N/A   Clear
7:53 AM 70.0 °F 37.0 °F 30% 29.91 in 10.0 mi East 8.1 mph - N/A   Clear
8:53 AM 75.0 °F 37.0 °F 25% 29.92 in 10.0 mi SE 11.5 mph - N/A   Clear
9:53 AM 79.0 °F 35.1 °F 20% 29.93 in 10.0 mi SSW 4.6 mph - N/A   Clear
10:53 AM 82.0 °F 36.0 °F 19% 29.94 in 10.0 mi SW 3.5 mph - N/A   Clear
11:53 AM 86.0 °F 35.1 °F 16% 29.93 in 10.0 mi Calm Calm - N/A   Clear
12:53 PM 89.1 °F 35.1 °F 15% 29.90 in 10.0 mi NW 5.8 mph - N/A   Clear
1:53 PM 91.9 °F 34.0 °F 13% 29.88 in 10.0 mi WNW 8.1 mph - N/A   Partly Cloudy
2:53 PM 93.9 °F 33.1 °F 12% 29.85 in 10.0 mi WNW 9.2 mph 16.1 mph N/A   Clear
3:53 PM 95.0 °F 33.1 °F 11% 29.84 in 10.0 mi NW 11.5 mph 18.4 mph N/A   Clear
4:53 PM 96.1 °F 32.0 °F 10% 29.82 in 10.0 mi WNW 11.5 mph 17.3 mph N/A   Clear
5:53 PM 95.0 °F 30.0 °F 10% 29.82 in 10.0 mi NNW 11.5 mph 16.1 mph N/A   Clear
6:53 PM 93.9 °F 28.9 °F 10% 29.82 in 10.0 mi NW 13.8 mph 19.6 mph N/A   Clear
7:53 PM 91.9 °F 28.9 °F 11% 29.81 in 10.0 mi NW 11.5 mph - N/A   Clear
8:53 PM 84.9 °F 28.9 °F 13% 29.83 in 10.0 mi NW 10.4 mph - N/A   Clear
9:53 PM 82.9 °F 27.0 °F 13% 29.85 in 10.0 mi NNE 8.1 mph - N/A   Clear
10:53 PM 73.9 °F 26.1 °F 17% 29.89 in 10.0 mi East 4.6 mph - N/A   Clear
11:53 PM 73.0 °F 26.1 °F 17% 29.88 in 10.0 mi ENE 3.5 mph - N/A   Clear